User: anonymous   Login
Location: Bow
(51.5261°N, 0.0167°W)
Time: 03:25:36
(UTC+00:00)
Language:

Cosmos 1844 Rocket - Orbit

View from above orbital plane
View from above orbital plane
View from above satellite
View from above satellite

Ground track
Ground track

The orbit data is extracted from the following two-line orbital elements,

1 17974U 87041B   20336.50984497 -.00000274 +00000-0 -11163-3 0  9998
2 17974 071.0068 128.0827 0016383 265.2971 150.8274 14.17270490735471
Epoch (UTC): 01 December 2020 12:14:10
Eccentricity: 0.0016383
inclination: 71.0068°
perigee height: 823 km
apogee height: 846 km
right ascension of ascending node: 128.0827°
argument of perigee: 265.2971°
revolutions per day: 14.17270490
mean anomaly at epoch: 150.8274°
orbit number at epoch: 73547

The dashed part of the orbit path shows where the satellite is in the earth's shadow,  

DLR